Location: Newark
(44.3681°N, 100.3364°W)
Time: 09:57:22
(UTC+00:00)

deb Explorer IX - Pass Details

Date: 23 February 2020
Orbit: 547 x 1100 km, 38.8° (Epoch: 06 April)

Event Time Altitude Azimuth Distance (km) Brightness Sun altitude
Rises 17:07:06 0° 235° (SW) 2,914 ? 30.6°
Reaches altitude 10° 17:09:45 10° 224° (SW) 1,937 ? 30.8°
Maximum altitude 17:13:31 28° 165° (SSE) 1,078 ? 31.1°
Drops below altitude 10° 17:17:04 10° 105° (ESE) 1,821 ? 31.5°
Sets 17:19:29 0° 94° (E) 2,706 ? 31.7°
